Weather History for Minden, LA

Change the Weather History Date:

Sunday, March 10, 2013

  Actual Average (KBAD) Record (KBAD)
Temperature  
Mean Temperature 56 °F -  
Max Temperature 66 °F 62 °F 83 °F (2009)
Min Temperature 45 °F 44 °F 24 °F (1998)
Degree Days  
Heating Degree Days 10    
Growing Degree Days 6 (Base 50)    
Moisture  
Dew Point 50 °F    
Average Humidity 76    
Maximum Humidity 92    
Minimum Humidity 53    
Precipitation  
Precipitation 0.77 in - - ()
Sea Level Pressure  
Sea Level Pressure 29.87 in    
Wind  
Wind Speed 10 mph (SW)    
Max Wind Speed 22 mph    
Max Gust Speed 31 mph    
Visibility 9 miles    
Events Rain , Thunderstorm    
Averages and records for this station are not official NWS values.
T = Trace of Precipitation, MM = Missing Value Source: NWS Daily Summary

Daily Weather History Graph

Daily Weather History Graph

Search for Another Location

Airport:

Trip Planner

Search our weather history database for the weather conditions in past years. The results will help you decide how hot, cold, wet, or windy it might be!

Date:

Astronomy

Mar. 10, 2013 Rise Set
Actual Time 7:29 AM CDT 7:17 PM CDT
Civil Twilight 7:04 AM CDT 7:42 PM CDT
Nautical Twilight 6:36 AM CDT 8:10 PM CDT
Astronomical Twilight 6:07 AM CDT 8:39 PM CDT
Moon 6:27 AM CDT (3/10) 6:26 PM CDT (3/10)
Length of Visible Light 12h 37m
Length of Day
11h 48m
Waning Crescent, 2% of the Moon is Illuminated
Mar 10
Waning Crescent
Mar 11
New
Mar 19
First Quarter
Mar 27
Full
Apr 2
Last Quarter

Hourly Weather History & Observations

Time (CDT) Temp. Windchill Dew Point Humidity Pressure Visibility Wind Dir Wind Speed Gust Speed Precip Events Conditions
12:15 AM 66.2 °F - 57.2 °F 73% 29.87 in 10.0 mi SSE 8.1 mph - N/A   Overcast
12:35 AM 66.2 °F - 57.2 °F 73% 29.85 in 10.0 mi SE 13.8 mph 19.6 mph N/A   Overcast
12:55 AM 65.8 °F - 57.2 °F 74% 29.86 in 10.0 mi SSE 10.4 mph 21.9 mph N/A   Overcast
1:15 AM 65.7 °F - 57.4 °F 75% 29.84 in 10.0 mi SSE 16.1 mph 20.7 mph N/A   Overcast
1:35 AM 65.7 °F - 57.4 °F 75% 29.83 in 10.0 mi SSE 10.4 mph 19.6 mph N/A   Mostly Cloudy
1:55 AM 65.7 °F - 57.4 °F 75% 29.81 in 10.0 mi SE 12.7 mph 21.9 mph N/A   Overcast
3:15 AM 65.7 °F - 57.6 °F 75% 29.82 in 10.0 mi SSE 8.1 mph 18.4 mph N/A   Overcast
3:35 AM 65.5 °F - 57.6 °F 76% 29.82 in 10.0 mi South 8.1 mph 17.3 mph N/A   Overcast
3:55 AM 65.7 °F - 58.1 °F 77% 29.82 in 10.0 mi SSE 9.2 mph - N/A   Overcast
4:15 AM 65.5 °F - 58.1 °F 77% 29.83 in 10.0 mi SSE 6.9 mph - N/A   Overcast
4:35 AM 65.5 °F - 58.1 °F 77% 29.82 in 10.0 mi SSE 8.1 mph - N/A   Overcast
4:55 AM 65.5 °F - 58.3 °F 77% 29.79 in 10.0 mi SSE 8.1 mph - N/A   Overcast
5:15 AM 65.3 °F - 58.5 °F 78% 29.76 in 10.0 mi SE 16.1 mph 25.3 mph N/A   Mostly Cloudy
5:35 AM 65.3 °F - 58.6 °F 79% 29.73 in 10.0 mi SE 15.0 mph 24.2 mph N/A   Scattered Clouds
5:55 AM 65.5 °F - 59.0 °F 80% 29.74 in 10.0 mi SE 12.7 mph 26.5 mph N/A   Mostly Cloudy
6:15 AM 65.5 °F - 59.0 °F 80% 29.75 in 10.0 mi SSE 16.1 mph 24.2 mph N/A   Overcast
7:35 AM 65.7 °F - 59.5 °F 81% 29.75 in 10.0 mi SSE 12.7 mph 21.9 mph N/A   Light Drizzle
7:55 AM 65.5 °F - 59.5 °F 81% 29.76 in 10.0 mi SSE 11.5 mph 23.0 mph N/A Rain Light Rain
8:15 AM 64.9 °F - 59.9 °F 84% 29.76 in 10.0 mi SSE 6.9 mph 20.7 mph N/A Rain Light Rain
8:35 AM 64.4 °F - 60.4 °F 87% 29.76 in 7.0 mi South 10.4 mph 16.1 mph 0.04 in Rain Rain
8:55 AM 55.0 °F - 51.8 °F 89% 29.79 in 3.0 mi NNW 21.9 mph 31.1 mph 0.16 in Rain Heavy Rain
9:15 AM 53.6 °F - 50.9 °F 91% 29.82 in 3.0 mi NW 13.8 mph 19.6 mph 0.11 in Rain Heavy Rain
9:35 AM 53.4 °F - 50.4 °F 89% 29.88 in 5.0 mi WNW 15.0 mph 19.6 mph 0.20 in Rain Rain
9:55 AM 53.2 °F - 50.4 °F 90% 29.89 in 4.0 mi NW 11.5 mph 20.7 mph 0.29 in Rain Heavy Rain
10:15 AM 53.2 °F - 50.4 °F 90% 29.88 in 7.0 mi NW 6.9 mph 16.1 mph 0.03 in Rain Rain
10:35 AM 53.2 °F - 50.5 °F 91% 29.86 in 10.0 mi North 6.9 mph - 0.06 in Rain Rain
10:55 AM 52.9 °F - 50.2 °F 91% 29.87 in 5.0 mi Calm Calm - 0.09 in Rain Rain
11:15 AM 53.1 °F - 50.4 °F 91% 29.89 in 4.0 mi Calm Calm - 0.08 in Rain Heavy Rain
11:35 AM 53.1 °F - 50.7 °F 92% 29.88 in 7.0 mi Calm Calm - 0.12 in Rain Light Rain
11:55 AM 53.6 °F - 51.1 °F 91% 29.87 in 7.0 mi ESE 5.8 mph - 0.16 in Rain Light Rain
12:35 PM 53.8 °F - 51.3 °F 91% 29.90 in 10.0 mi South 6.9 mph - 0.01 in Rain Light Rain
12:55 PM 54.3 °F - 51.8 °F 91% 29.88 in 10.0 mi Calm Calm - 0.05 in Rain Light Rain
1:15 PM 55.4 °F - 52.3 °F 89% 29.88 in 10.0 mi South 3.5 mph - 0.01 in   Overcast
1:35 PM 55.4 °F - 52.7 °F 91% 29.86 in 10.0 mi SSE 3.5 mph - 0.01 in Rain Light Rain
1:55 PM 54.9 °F - 52.0 °F 90% 29.89 in 10.0 mi South 5.8 mph - 0.01 in Rain Light Rain
2:15 PM 55.8 °F - 53.1 °F 91% 29.87 in 10.0 mi Calm Calm - 0.01 in Rain Light Rain
2:35 PM 56.5 °F - 52.5 °F 87% 29.87 in 10.0 mi SSW 5.8 mph - 0.01 in Thunderstorm Overcast
2:55 PM 57.2 °F - 53.1 °F 86% 29.86 in 10.0 mi SW 4.6 mph - 0.01 in Rain Light Rain
3:15 PM 57.2 °F - 52.5 °F 84% 29.87 in 10.0 mi SSW 6.9 mph - N/A   Overcast
3:35 PM 57.6 °F - 52.7 °F 84% 29.87 in 10.0 mi SW 5.8 mph - N/A Rain Light Rain
3:55 PM 58.1 °F - 52.7 °F 82% 29.86 in 10.0 mi WSW 4.6 mph - N/A   Overcast
4:15 PM 59.2 °F - 53.1 °F 80% 29.86 in 10.0 mi WSW 6.9 mph - N/A   Overcast
4:35 PM 59.4 °F - 52.5 °F 78% 29.86 in 10.0 mi WSW 6.9 mph - N/A   Overcast
4:55 PM 59.4 °F - 52.9 °F 79% 29.86 in 10.0 mi West 8.1 mph - N/A   Overcast
5:15 PM 61.3 °F - 52.2 °F 72% 29.85 in 10.0 mi WNW 6.9 mph - N/A   Overcast
5:35 PM 60.8 °F - 50.0 °F 68% 29.85 in 10.0 mi West 8.1 mph - N/A   Mostly Cloudy
5:55 PM 61.0 °F - 48.2 °F 63% 29.85 in 10.0 mi West 5.8 mph - N/A   Scattered Clouds
6:15 PM 61.3 °F - 45.0 °F 55% 29.85 in 10.0 mi WNW 15.0 mph 19.6 mph N/A   Mostly Cloudy
6:35 PM 60.3 °F - 44.1 °F 55% 29.86 in 10.0 mi WNW 10.4 mph 16.1 mph N/A   Scattered Clouds
6:55 PM 59.5 °F - 42.3 °F 53% 29.86 in 10.0 mi West 8.1 mph - N/A   Scattered Clouds
7:15 PM 57.9 °F - 41.0 °F 53% 29.89 in 10.0 mi WNW 8.1 mph - N/A   Clear
7:35 PM 56.3 °F - 40.1 °F 55% 29.90 in 10.0 mi WNW 12.7 mph 17.3 mph N/A   Scattered Clouds
7:55 PM 54.5 °F - 40.1 °F 58% 29.91 in 10.0 mi NW 13.8 mph 20.7 mph N/A   Mostly Cloudy
8:15 PM 52.7 °F - 39.2 °F 60% 29.93 in 10.0 mi WNW 9.2 mph 18.4 mph N/A   Scattered Clouds
8:35 PM 51.3 °F - 38.8 °F 63% 29.94 in 10.0 mi WNW 15.0 mph 19.6 mph N/A   Scattered Clouds
9:15 PM 49.3 °F - 38.3 °F 66% 29.97 in 10.0 mi WNW 12.7 mph 23.0 mph N/A   Scattered Clouds
9:35 PM 48.4 °F - 38.1 °F 68% 29.98 in 10.0 mi West 10.4 mph 16.1 mph N/A   Clear
9:55 PM 47.8 °F - 36.9 °F 66% 30.00 in 10.0 mi WNW 13.8 mph 20.7 mph N/A   Scattered Clouds
10:15 PM 46.9 °F - 35.2 °F 64% 30.01 in 10.0 mi WNW 12.7 mph 18.4 mph N/A   Scattered Clouds
10:35 PM 46.4 °F 41.5 °F 34.9 °F 64% 30.01 in 10.0 mi WNW 10.4 mph 16.1 mph N/A   Scattered Clouds
10:55 PM 46.0 °F 43.1 °F 34.9 °F 65% 30.02 in 10.0 mi West 5.8 mph - N/A   Mostly Cloudy
11:15 PM 46.4 °F 42.4 °F 35.1 °F 65% 30.02 in 10.0 mi WNW 8.1 mph - N/A   Overcast
11:35 PM 46.4 °F 42.9 °F 34.9 °F 64% 30.01 in 10.0 mi WNW 6.9 mph - N/A   Overcast
12:15 AM 46.0 °F 42.5 °F 35.2 °F 66% 30.00 in 10.0 mi WNW 6.9 mph - N/A   Overcast
12:35 AM 45.7 °F 41.5 °F 34.5 °F 65% 29.98 in 10.0 mi WNW 8.1 mph - N/A   Overcast
12:55 AM 45.5 °F 40.3 °F 32.5 °F 61% 30.01 in 10.0 mi West 10.4 mph 19.6 mph N/A   Overcast